Theta_e
345 348 350 352 370 369 373 368 361 359 358 354 353 357 358 357 360 369 351 351 351 350 351 351 350 350 350 345 344 344 345 349 350 351 351 349 351 352 347 351 349 349 348 351 350 352 350 351 352
350 351 353 359 370 365 371 362 362 359 355 354 354 356 357 360 353 352 351 350 349 350 351 351 350 350 349 347 347 351 352 351 348 348 352 349 352 349 351 352 350 352 350 349 351 351 350 352 352
353 353 361 368 372 369 372 360 358 355 354 355 358 356 355 357 351 352 350 349 349 348 349 348 348 349 352 353 353 353 353 353 350 352 349 349 352 351 352 351 350 350 351 349 350 351 349 350 347
354 356 360 373 370 366 367 360 355 356 355 353 354 359 353 351 350 351 350 348 346 350 351 348 349 352 352 350 352 352 351 352 352 352 351 351 350 351 351 351 351 351 351 350 349 349 350 350 345
353 359 371 373 364 363 361 356 355 357 355 355 355 359 355 351 351 350 348 347 344 350 350 352 351 352 352 352 352 353 353 352 351 353 352 354 353 352 351 351 351 351 350 349 349 348 348 347 339
360 360 373 372 363 363 357 356 356 356 356 357 356 357 354 350 350 348 347 346 347 347 348 351 351 352 352 354 353 353 352 352 352 353 353 353 351 351 352 352 351 351 350 349 348 349 347 343 337
357 365 369 369 368 366 359 356 359 358 357 357 354 359 353 351 350 350 347 343 344 348 347 350 354 354 353 352 352 353 352 350 352 353 351 349 351 353 352 352 351 349 349 346 346 343 343 340 335
352 355 364 363 366 368 361 359 356 358 357 354 354 358 357 350 349 347 345 343 343 347 348 351 353 351 353 353 354 353 352 353 353 352 346 344 343 344 348 346 350 350 349 344 342 342 341 336 334
348 353 365 363 364 366 354 358 358 356 356 355 355 353 351 349 348 347 344 343 347 345 347 349 349 349 351 352 353 353 348 346 351 354 346 348 351 351 350 344 349 350 348 345 344 344 340 339 339
350 355 366 357 360 355 350 357 365 357 357 356 357 352 350 349 348 347 344 344 346 345 345 345 347 348 348 351 350 352 351 348 350 352 348 351 350 350 347 342 347 346 341 341 343 342 341 344 345
349 352 354 355 356 354 364 359 363 357 358 355 359 354 351 349 348 347 344 343 346 344 344 347 349 348 347 347 353 352 350 353 351 350 349 352 351 348 348 344 346 341 345 346 345 344 339 343 341
349 348 347 349 352 355 356 359 363 358 357 353 354 352 351 350 348 346 344 342 344 343 344 349 349 347 347 346 352 348 350 353 349 350 350 350 349 348 344 351 351 348 347 343 346 348 346 344 341
344 347 347 347 347 354 354 358 361 356 348 345 353 352 351 350 347 346 345 342 343 343 347 349 349 351 348 346 348 348 348 347 349 345 351 348 351 349 348 349 350 345 348 349 346 347 346 347 344
340 342 343 345 344 353 352 357 356 358 350 356 354 352 351 350 348 349 345 344 343 343 346 347 346 350 347 350 350 347 350 350 351 349 351 353 351 349 351 351 349 348 339 348 348 347 346 347 345
333 336 336 341 343 355 351 356 358 357 356 355 355 353 351 351 349 347 346 345 343 343 346 347 347 349 347 352 351 347 348 344 350 351 350 353 353 354 351 351 348 347 349 351 350 345 348 344 343
330 331 336 335 340 346 353 357 360 357 360 356 355 354 354 352 349 348 348 345 343 343 345 346 346 347 348 352 349 349 350 351 351 351 352 352 354 355 353 352 351 351 351 343 350 347 340 344 343
329 327 331 334 337 341 352 357 361 355 354 358 355 355 354 353 350 349 348 346 344 343 344 346 347 346 349 351 347 349 348 349 348 350 352 354 355 354 349 351 351 348 352 349 348 342 340 348 344
329 327 327 332 335 338 346 352 355 347 349 352 356 354 355 353 351 349 348 347 344 343 344 346 347 346 349 351 348 349 350 351 348 350 352 355 355 354 352 353 351 350 352 347 342 350 344 348 341
327 327 326 326 330 334 341 350 352 348 346 353 355 353 353 353 350 349 348 348 345 342 345 347 345 348 347 351 351 349 350 348 352 350 351 355 354 353 354 352 353 354 352 351 349 350 346 346 342
330 329 327 328 327 331 335 342 352 350 351 349 349 355 353 353 353 351 349 348 346 344 345 345 346 349 347 352 350 349 350 346 349 352 355 352 352 353 354 351 353 353 353 352 351 343 344 346 338
329 328 327 327 328 328 332 338 357 352 352 355 351 355 351 355 353 353 350 349 347 346 346 345 348 352 348 348 347 348 348 346 350 351 351 351 353 353 355 354 355 355 355 352 351 349 348 348 339
327 327 326 327 327 327 329 332 354 363 361 358 357 355 352 353 353 352 350 350 348 347 347 347 348 353 347 346 346 348 349 351 348 351 353 351 354 353 353 355 354 354 353 352 350 353 350 350 345
327 327 327 326 327 327 327 330 331 349 355 354 352 355 353 350 353 352 351 349 349 348 348 350 349 353 349 345 349 346 348 350 352 348 351 354 352 354 353 354 355 353 352 353 352 354 352 352 349
326 326 326 327 327 328 326 328 333 341 360 350 348 354 353 352 351 353 351 350 350 349 348 351 351 352 351 344 349 347 347 350 349 347 353 356 352 352 354 355 354 353 353 353 355 355 351 353 350
326 326 326 329 329 328 326 326 331 333 352 354 348 349 353 355 354 353 353 353 351 350 349 349 353 353 353 351 347 353 346 347 351 348 353 351 354 352 352 354 354 353 353 354 354 354 355 354 355
325 327 329 331 329 328 327 329 329 329 330 351 346 349 346 352 355 354 354 353 353 352 350 349 354 354 354 355 347 349 352 346 349 354 348 352 348 351 352 350 354 355 354 355 355 355 355 355 350
327 328 327 328 329 330 329 329 329 329 329 331 348 346 349 350 357 355 354 353 355 353 352 351 353 356 355 354 354 347 353 354 351 352 350 348 349 349 352 350 356 354 356 354 355 353 352 355 354
323 324 327 329 332 334 330 334 332 332 331 330 333 346 351 352 353 356 354 354 355 354 354 354 354 356 357 354 356 353 351 352 349 348 352 351 350 346 355 355 355 355 356 353 356 354 352 353 353
323 326 326 327 330 332 333 332 334 336 332 331 330 335 350 349 352 354 355 354 354 355 355 355 356 357 358 358 356 355 353 350 347 350 345 353 351 356 351 354 353 356 354 356 355 353 356 355 354
322 324 324 332 333 333 332 332 333 336 332 330 330 332 340 347 350 347 346 355 355 355 355 356 356 359 360 360 359 356 357 354 352 346 350 356 351 350 357 352 356 354 355 355 355 356 355 357 355
Wind_Speed
12 10 10 1 3 4 3 7 3 16 14 13 16 15 14 8 2 10 30 26 27 23 19 18 17 15 14 14 14 12 11 10 10 10 9 10 9 11 12 11 13 12 11 11 11 12 12 12 11
12 11 3 2 1 4 6 8 11 7 21 19 18 16 18 19 20 23 26 31 28 25 21 18 18 16 15 13 12 12 11 10 9 10 10 10 11 11 11 11 11 12 12 11 12 12 12 12 11
11 11 3 3 3 5 3 4 13 19 18 18 20 15 9 19 23 22 34 33 29 26 23 20 18 17 15 15 13 13 12 11 10 10 10 11 11 12 11 12 11 11 12 12 13 12 13 12 11
9 4 5 5 6 1 7 9 17 15 17 19 17 14 22 26 22 36 34 32 30 26 21 21 19 17 16 14 14 13 12 11 11 11 10 12 11 11 11 10 11 11 11 12 12 12 12 12 10
9 4 5 4 5 9 23 10 18 13 17 17 18 23 20 19 39 33 31 33 30 27 21 19 19 17 16 16 15 13 12 11 11 12 12 12 12 11 10 10 11 11 12 12 11 10 10 10 11
3 4 7 7 11 10 10 16 15 15 15 23 20 23 11 29 37 31 30 32 32 25 22 18 18 18 16 16 14 14 13 12 12 13 12 12 11 11 10 9 10 11 11 12 12 13 12 9 10
9 7 13 5 7 15 8 12 14 8 14 20 25 19 13 22 33 32 30 32 28 28 22 19 17 16 16 16 15 13 13 12 12 13 12 12 11 11 9 9 9 10 10 11 11 11 10 10 11
12 11 12 6 6 4 11 14 18 12 11 20 18 9 20 25 31 29 27 31 30 27 22 22 18 16 15 15 14 14 13 11 12 12 13 14 12 11 10 11 9 9 10 10 10 9 10 11 12
20 8 8 5 4 4 20 7 17 12 16 10 7 21 28 37 33 27 26 30 34 26 24 21 18 16 17 15 14 14 12 13 12 11 13 14 10 12 10 8 10 10 10 9 8 9 9 8 7
15 9 7 5 10 7 4 13 14 13 17 8 11 25 37 37 32 28 25 29 30 28 25 24 22 23 19 17 16 12 13 14 11 9 9 9 11 9 8 6 9 10 10 11 10 11 11 8 3
19 14 15 12 11 21 16 21 11 12 16 14 23 25 28 30 29 27 27 25 28 29 26 27 26 23 20 15 18 18 15 14 11 8 8 9 12 10 6 6 7 8 11 7 10 12 17 19 4
20 18 16 11 6 2 7 11 12 17 5 8 17 24 26 25 22 27 26 27 23 24 26 32 22 18 20 17 19 17 17 19 10 8 6 7 11 11 6 9 9 5 4 10 10 12 14 14 14
19 17 20 8 6 11 5 8 12 9 14 13 19 24 27 23 29 28 30 29 24 19 29 31 25 17 17 16 10 17 16 14 18 10 8 6 5 6 6 5 8 11 4 9 6 6 13 7 6
15 18 20 13 12 6 10 10 17 11 24 18 23 21 22 25 30 26 28 31 27 22 24 24 19 12 14 8 5 10 17 14 7 12 9 7 8 8 8 5 5 3 7 6 6 5 8 7 14
16 20 14 18 17 12 8 5 7 15 24 26 24 21 22 20 31 23 27 30 29 22 24 25 22 15 14 5 7 9 11 7 8 8 6 7 4 6 5 5 13 3 4 4 5 6 9 5 10
14 19 18 17 19 17 17 13 13 14 3 21 23 23 24 22 29 28 28 31 30 25 24 25 22 20 16 11 11 8 9 19 12 8 7 6 4 6 1 1 6 8 5 2 4 5 3 4 4
16 16 22 21 20 20 16 5 8 7 10 17 20 23 22 22 23 26 28 30 31 24 26 24 21 23 19 17 15 10 7 8 14 10 11 7 7 4 4 5 1 8 1 8 6 3 8 2 3
16 18 19 18 18 20 20 11 12 13 8 20 22 19 21 24 21 28 29 30 30 25 28 24 20 26 20 20 16 12 8 8 10 13 9 8 7 8 6 5 3 5 8 7 9 2 5 3 6
21 19 18 17 20 20 21 14 15 15 13 8 14 20 22 24 21 28 27 29 31 28 29 23 24 31 26 19 16 14 13 12 15 14 13 9 6 5 2 5 4 2 6 8 4 3 5 6 9
23 21 20 15 19 20 17 15 17 10 5 17 25 22 22 23 26 24 26 28 31 30 31 27 25 30 28 19 19 16 14 14 12 18 17 9 7 7 6 6 5 3 3 5 3 5 1 2 4
19 21 19 17 12 20 18 17 19 13 15 14 30 23 23 23 25 23 25 29 30 31 32 33 27 29 27 21 21 17 16 17 18 15 14 11 11 8 5 5 3 4 3 5 8 5 2 3 7
20 19 20 20 15 14 14 14 21 25 25 19 13 24 24 23 23 23 26 27 31 33 33 34 30 28 30 26 22 19 16 14 17 17 15 17 13 12 9 6 3 5 2 9 5 5 6 6 4
20 19 16 18 18 19 22 16 17 23 21 10 17 20 25 25 25 26 25 33 33 33 34 33 34 29 30 33 23 24 21 18 17 19 21 21 17 13 14 11 9 7 7 5 7 3 4 1 3
16 20 18 16 16 16 21 19 15 16 21 21 14 23 22 26 24 25 32 34 31 33 34 34 36 34 31 37 28 27 27 19 16 19 24 19 20 17 13 14 14 8 7 9 6 6 6 4 2
19 15 12 15 15 17 21 19 15 16 24 27 26 26 21 25 25 22 25 27 34 36 38 38 40 37 36 35 34 26 32 30 20 21 20 21 19 23 20 15 14 12 10 10 8 9 6 6 3
22 20 15 19 15 18 21 21 19 21 23 29 28 19 12 24 26 27 25 30 36 37 40 40 42 40 39 35 38 33 30 32 25 15 19 18 22 22 27 25 19 15 13 11 12 9 11 8 9
22 20 22 24 22 17 17 17 25 20 23 20 25 24 12 30 26 28 27 32 36 37 39 41 40 41 41 40 37 38 33 29 26 21 21 22 20 13 22 26 21 17 14 14 15 11 11 8 10
18 20 20 16 22 23 19 23 15 21 19 20 20 25 26 19 27 26 23 29 36 39 38 38 38 41 40 41 36 36 37 37 29 30 23 22 20 19 22 23 21 20 17 17 15 14 15 14 13
16 17 21 15 16 17 17 16 17 21 23 19 21 19 25 25 18 22 22 29 33 37 38 39 37 39 40 39 39 36 36 35 39 28 33 29 28 16 16 16 17 18 19 18 19 20 16 21 17
16 18 22 14 19 16 18 17 12 17 23 19 15 17 16 26 26 7 6 27 30 33 37 38 40 38 41 41 39 39 36 37 36 37 32 30 31 29 17 20 15 19 19 21 21 22 19 18 18
Wind_Direction
193 191 198 232 248 225 195 220 247 125 125 114 99 97 93 83 195 123 142 139 141 142 146 145 149 139 135 135 140 138 135 128 128 121 110 103 106 90 90 86 84 88 93 93 104 98 98 100 96
185 194 242 265 264 44 296 123 122 196 108 99 113 113 86 92 101 124 127 135 138 138 139 142 142 137 138 137 135 133 129 133 126 118 123 122 106 105 100 96 90 90 95 97 99 102 102 101 106
227 211 258 220 210 129 251 110 130 102 116 106 88 68 43 107 120 124 133 134 137 142 136 142 135 138 137 135 131 130 129 130 131 124 120 117 115 105 96 97 94 94 92 90 97 101 99 107 104
211 174 253 249 77 126 248 205 112 132 86 105 106 77 104 119 129 131 136 145 136 126 129 139 139 137 132 131 124 126 126 125 126 125 119 119 117 111 106 108 103 98 94 95 98 106 104 101 100
231 241 259 229 190 240 228 123 147 124 108 118 105 110 119 114 123 134 147 145 137 127 133 138 137 135 135 131 128 124 122 127 129 129 127 127 122 119 113 110 108 103 99 100 99 109 113 108 102
209 245 270 38 335 280 133 149 123 119 123 104 108 122 123 138 136 147 155 144 127 131 138 137 138 136 134 126 125 124 125 128 131 132 131 126 124 117 113 113 113 109 111 109 104 105 109 116 113
245 263 287 174 211 257 125 112 118 135 142 119 136 118 138 144 156 159 157 136 128 135 135 138 137 134 131 130 126 126 131 130 134 135 140 136 130 121 125 120 118 120 119 117 118 119 117 117 117
233 279 293 96 253 301 319 116 131 168 106 115 125 139 159 155 169 152 154 134 136 129 136 139 141 140 134 126 129 130 135 139 140 144 142 128 124 119 122 111 123 126 126 127 126 122 120 117 120
242 277 294 311 61 318 268 183 137 151 121 135 125 144 152 160 158 153 155 139 130 140 147 144 147 146 144 133 134 135 141 142 151 154 145 131 133 122 106 133 128 132 138 138 126 110 115 122 114
247 260 328 5 121 228 266 270 21 147 126 141 132 130 151 164 158 162 155 143 146 145 159 149 152 150 155 142 139 146 154 144 147 147 157 147 127 142 114 120 122 130 144 137 141 136 118 77 3
235 246 228 278 262 180 198 244 149 174 147 163 131 145 156 156 159 173 158 153 142 155 166 154 147 160 159 145 156 166 169 165 172 158 128 181 126 110 105 126 132 138 115 131 155 174 104 113 206
241 257 236 262 313 330 359 144 323 101 139 252 147 157 159 152 162 178 157 154 151 168 152 136 140 169 144 147 178 165 181 168 142 166 141 158 135 153 187 162 179 228 201 108 227 186 155 138 135
250 246 279 184 223 255 216 106 114 152 171 204 146 159 163 159 167 183 159 153 157 175 139 140 155 135 164 169 187 165 164 184 155 161 170 176 164 151 118 169 144 192 136 160 138 144 168 109 151
241 237 258 261 250 197 269 167 163 188 161 178 140 157 168 162 178 184 155 150 159 179 143 141 150 149 166 166 118 161 126 132 156 161 161 139 105 141 184 121 43 306 101 104 146 93 63 49 97
273 265 267 251 265 196 206 246 350 120 160 139 151 162 172 178 185 172 155 150 159 183 148 147 151 170 172 164 145 161 158 181 141 162 161 127 150 128 185 154 140 150 102 79 118 123 104 142 141
263 250 257 246 230 247 205 216 71 95 270 143 159 165 175 178 182 180 170 157 160 182 156 154 167 172 171 175 175 192 166 160 152 158 153 148 127 90 152 313 120 103 146 211 61 138 152 140 136
229 242 236 250 220 231 207 158 108 61 7 157 166 170 173 175 182 189 172 160 160 179 159 162 173 167 168 163 181 209 209 153 157 174 151 159 125 137 146 222 98 134 269 123 94 99 158 7 157
233 227 244 235 243 197 232 163 132 127 251 280 160 179 175 173 186 183 174 166 164 172 163 173 181 167 173 162 184 210 196 161 164 171 162 159 166 146 177 141 174 109 136 129 138 137 182 169 128
265 273 234 239 231 234 206 163 149 171 213 224 229 177 184 175 182 177 182 170 164 170 165 178 183 166 174 172 181 208 174 203 189 199 165 163 174 168 173 135 187 105 92 120 136 169 209 174 115
248 266 274 260 246 219 210 190 160 138 343 256 258 173 191 183 172 179 185 177 169 171 167 180 181 167 173 179 191 197 188 206 201 181 158 150 173 175 215 157 181 175 135 137 78 149 285 66 110
232 249 260 270 275 255 224 203 156 189 183 246 257 173 188 184 178 172 183 183 174 172 169 176 184 171 173 185 195 205 200 206 181 189 169 173 189 196 194 170 161 165 201 178 161 184 267 310 156
244 243 250 268 269 261 213 252 190 185 183 204 230 173 182 189 183 178 180 186 184 175 173 175 184 179 180 188 193 202 203 207 191 197 185 175 193 193 174 172 199 194 242 184 193 210 218 227 180
253 255 256 250 265 267 262 223 244 189 185 153 250 232 183 183 187 185 182 190 185 176 176 177 181 185 186 193 195 197 210 214 210 189 198 176 185 199 194 186 194 210 194 192 209 248 229 171 231
250 250 264 262 241 249 248 254 232 216 179 175 168 253 193 180 189 183 185 183 189 183 179 179 182 188 189 195 197 196 207 211 209 205 169 167 182 195 206 188 194 204 200 207 199 238 232 259 352
230 242 232 239 241 240 234 243 242 254 177 177 189 216 210 178 180 189 180 181 186 185 183 183 182 187 190 194 202 198 203 215 214 209 173 184 186 188 199 197 194 203 195 198 198 210 231 241 255
232 222 230 229 233 239 231 238 230 247 264 190 184 199 202 249 179 181 181 183 184 189 185 186 183 186 189 193 201 198 201 216 220 214 205 191 199 203 198 194 196 199 210 200 197 209 221 213 235
247 231 234 255 257 249 249 219 243 240 241 246 172 166 190 258 178 180 176 181 182 187 189 189 186 187 189 194 197 201 197 206 213 209 206 218 222 230 196 189 188 200 205 203 209 210 222 231 209
231 254 228 231 250 258 255 249 234 215 229 235 239 186 174 192 256 175 181 178 182 187 189 191 189 188 191 193 197 200 199 200 204 214 211 215 220 233 187 183 186 193 208 212 211 219 218 219 213
221 245 257 271 237 253 258 259 259 207 204 208 227 240 178 191 231 179 172 182 183 186 188 190 192 187 191 193 198 201 204 205 203 206 216 214 217 221 211 190 190 197 208 213 215 225 225 210 214
247 258 242 246 240 265 250 253 24 341 187 194 216 229 217 183 205 74 345 176 181 183 187 190 192 192 192 195 197 201 203 204 206 207 209 210 214 223 218 213 203 207 213 216 216 219 232 216 217